Regional Weather Roundup
Issued by NWS

Home | Current Version | Previous Version | Graphics & Text | Print | Product List | Glossary On
Versions: 1 2 3 4 5 6 7 8 9 10 11 12 13 14 15 16 17 18 19 20 21 22 23 24 25 26 27 28 29 30 31 32 33 34 35 36 37 38 39 40 41 42 43 44 45 46 47 48 49 50
000
ASUS43 KBIS 251501
RWRND

NORTH DAKOTA REGIONAL WEATHER ROUNDUP
NATIONAL WEATHER SERVICE BISMARCK ND
1000 AM CDT SAT APR 25 2015

NOTE: "FAIR" INDICATES FEW OR NO CLOUDS BELOW 12,000 FEET WITH NO
SIGNIFICANT WEATHER AND/OR OBSTRUCTIONS TO VISIBILITY.


NDZ001>003-009>011-017-251600-
NORTHWEST NORTH DAKOTA

CITY           SKY/WX    TMP DP  RH WIND       PRES   REMARKS
WILLISTON      CLOUDY    49  41  74 SE16      29.73S
MINOT          CLOUDY    44  40  85 SE15      29.81R
MINOT AFB      CLOUDY    43  43 100 SE15      29.81R
$$

NDZ018>021-031>035-040>046-251600-
SOUTHWEST NORTH DAKOTA

CITY           SKY/WX    TMP DP  RH WIND       PRES   REMARKS
BISMARCK       CLOUDY    45  41  86 E13       29.80R
DICKINSON      FOG       42  41  96 E14       29.72R VSB 1/2
GARRISON         N/A     44  41  89 SE15      29.78S
HETTINGER ARPT FOG       43  42  97 E14       29.73S VSB 3/4
$$

NDZ004>008-012>016-024-026-027-054-251600-
NORTHEAST NORTH DAKOTA

CITY           SKY/WX    TMP DP  RH WIND       PRES   REMARKS
GRAND FORKS    CLOUDY    46  33  60 E7        29.89R
GRND FRKS AFB  CLOUDY    46  33  60 SE9       29.89R
DEVILS LAKE    CLOUDY    46  34  61 E14       29.85S
$$

NDZ022-023-025-028>030-036>039-047>053-251600-
SOUTHEAST NORTH DAKOTA

CITY           SKY/WX    TMP DP  RH WIND       PRES   REMARKS
FARGO          CLOUDY    46  37  71 E14       29.86R
JAMESTOWN      CLOUDY    42  39  89 E12       29.83R FOG
$$



USA.gov is the U.S. government's official web portal to all federal, state and local government web resources and services.